Location: Sternwarte_Laufen
(47.9344°N, 12.9346°E)
Time: 22:40:47
(UTC+02:00)

ISS - Pass Details

Date: 14 July 2018
Orbit: 402 x 408 km, 51.6° (Epoch: 22 July)

Event Time Altitude Azimuth Distance (km) Brightness Sun altitude
Exits shadow 02:40:10 26° 273° (W) 840 -2.4 -17.7°
Maximum altitude 02:41:47 59° 344° (NNW) 477 -3.3 -17.6°
Drops below altitude 10° 02:45:03 10° 65° (ENE) 1,474 -0.3 -17.4°
Sets 02:47:10 0° 69° (ENE) 2,337 0.7 -17.3°
